Tracking 28920 objects as of 26-May-2024
HD Live streaming from Space Station
objects crossing your sky now

STARLINK-6153

Track STARLINK-6153 now!
10-day predictions
STARLINK-6153 is classified as:


NORAD ID: 56384
Int'l Code: 2023-061L
Perigee: 565.4 km
Apogee: 567.1 km
Inclination: 43.0 °
Period: 95.8 minutes
Semi major axis: 6937 km
RCS: Unknown
Launch date: May 4, 2023
Source: United States (US)
Launch site: AIR FORCE EASTERN TEST RANGE (AFETR)
Your satellite tracking list
Your tracking list is empty




NASA's NSSDC Master Catalog

Two Line Element Set (TLE):
1 56384U 23061L   24147.45180095  .00001044  00000-0  92360-4 0  9991
2 56384  43.0036 141.3282 0001218 266.6888  93.3815 15.02536920 58646
Source of the keplerian elements: AFSPC